Weather reports worldwide

Advertisment
Madridejos, Spain (8273): temperature & dewpoint: 16.09.2018 23:00:00 - 22.09.2018 23:00:00 (CEST)Madridejos, Spain (8273): wind speed & gusts: 16.09.2018 23:00:00 - 22.09.2018 23:00:00 (CEST)Madridejos, Spain (8273): wind direction: 16.09.2018 23:00:00 - 22.09.2018 23:00:00 (CEST)Madridejos, Spain (8273): reduced air pressure: 16.09.2018 23:00:00 - 22.09.2018 23:00:00 (CEST)Madridejos, Spain (8273): visibility: 16.09.2018 23:00:00 - 22.09.2018 23:00:00 (CEST)Madridejos, Spain (8273): sunshine duration: 16.09.2018 23:00:00 - 22.09.2018 23:00:00 (CEST)Madridejos, Spain (8273): precipitation: 16.09.2018 23:00:00 - 22.09.2018 23:00:00 (CEST)
Date & Time tt [°C] td [°C] ff [km/h] ff [kn] fx [km/h] fx [kn] dd ppp [hPa] vv [km] sd [min] rr [mm]
22.09.2018 23:00:00 - - - - - - - - - - -
22.09.2018 22:00:00 - - - - - - - - - - -
22.09.2018 21:00:00 - - - - - - - - - - -
22.09.2018 20:00:00 - - - - - - - - - - -
22.09.2018 19:00:00 - - - - - - - - - - -
22.09.2018 18:00:00 - - - - - - - - - - -
22.09.2018 17:00:00 - - - - - - - - - - -
22.09.2018 16:00:00 - - - - - - - - - - -
22.09.2018 15:00:00 - - - - - - - - - - -
22.09.2018 14:00:00 - - - - - - - - - - -
22.09.2018 13:00:00 - - - - - - - - - - -
22.09.2018 12:00:00 - - - - - - - - - - -
22.09.2018 11:00:00 - - - - - - - - - - -
22.09.2018 10:00:00 - - - - - - - - - - -
22.09.2018 09:00:00 - - - - - - - - - - -
22.09.2018 08:00:00 - - - - - - - - - - -
22.09.2018 07:00:00 - - - - - - - - - - -
22.09.2018 06:00:00 - - - - - - - - - - -
22.09.2018 05:00:00 - - - - - - - - - - -
22.09.2018 04:00:00 - - - - - - - - - - -
22.09.2018 03:00:00 - - - - - - - - - - -
22.09.2018 02:00:00 - - - - - - - - - - -
22.09.2018 01:00:00 - - - - - - - - - - -
22.09.2018 00:00:00 - - - - - - - - - - -
21.09.2018 23:00:00 - - - - - - - - - - -
21.09.2018 22:00:00 - - - - - - - - - - -
21.09.2018 21:00:00 - - - - - - - - - - -
21.09.2018 20:00:00 - - - - - - - - - - -
21.09.2018 19:00:00 - - - - - - - - - - -
21.09.2018 18:00:00 - - - - - - - - - - -
21.09.2018 17:00:00 - - - - - - - - - - -
21.09.2018 16:00:00 - - - - - - - - - - -
21.09.2018 15:00:00 - - - - - - - - - - -
21.09.2018 14:00:00 - - - - - - - - - - -
21.09.2018 13:00:00 - - - - - - - - - - -
21.09.2018 12:00:00 - - - - - - - - - - -
21.09.2018 11:00:00 - - - - - - - - - - -
21.09.2018 10:00:00 - - - - - - - - - - -
21.09.2018 09:00:00 - - - - - - - - - - -
21.09.2018 08:00:00 - - - - - - - - - - -
21.09.2018 07:00:00 - - - - - - - - - - -
21.09.2018 06:00:00 - - - - - - - - - - -
21.09.2018 05:00:00 - - - - - - - - - - -
21.09.2018 04:00:00 - - - - - - - - - - -
21.09.2018 03:00:00 - - - - - - - - - - -
21.09.2018 02:00:00 - - - - - - - - - - -
21.09.2018 01:00:00 - - - - - - - - - - -
21.09.2018 00:00:00 - - - - - - - - - - -
20.09.2018 23:00:00 - - - - - - - - - - -
20.09.2018 22:00:00 - - - - - - - - - - -
20.09.2018 21:00:00 - - - - - - - - - - -
20.09.2018 20:00:00 - - - - - - - - - - -
20.09.2018 19:00:00 - - - - - - - - - - -
20.09.2018 18:00:00 - - - - - - - - - - -
20.09.2018 17:00:00 - - - - - - - - - - -
20.09.2018 16:00:00 - - - - - - - - - - -
20.09.2018 15:00:00 - - - - - - - - - - -
20.09.2018 14:00:00 - - - - - - - - - - -
20.09.2018 13:00:00 - - - - - - - - - - -
20.09.2018 12:00:00 - - - - - - - - - - -
20.09.2018 11:00:00 - - - - - - - - - - -
20.09.2018 10:00:00 - - - - - - - - - - -
20.09.2018 09:00:00 - - - - - - - - - - -
20.09.2018 08:00:00 - - - - - - - - - - -
20.09.2018 07:00:00 - - - - - - - - - - -
20.09.2018 06:00:00 - - - - - - - - - - -
20.09.2018 05:00:00 16,9 10,3 8 4 18 10 ESE 1019,7 20 0 0,0
20.09.2018 04:00:00 17,8 9,7 4 2 16 9 E 1019,6 20 0 0,0
20.09.2018 03:00:00 18,9 9,9 9 5 13 7 ESE 1019,5 20 0 0,0
20.09.2018 02:00:00 19,2 9,7 9 5 23 12 ESE 1019,7 20 0 -
20.09.2018 01:00:00 20,3 8,9 2 1 4 2 S 1019,4 20 0 0,0
20.09.2018 00:00:00 21,3 8,9 3 1 11 6 S 1019,2 20 0 0,0
19.09.2018 23:00:00 24,4 8,8 5 3 13 7 S 1018,3 20 0 0,0
19.09.2018 22:00:00 25,5 9,3 5 3 14 8 S 1017,4 20 0 0,0
19.09.2018 21:00:00 27,0 9,3 5 3 15 8 SSE 1016,4 20 0 0,0
19.09.2018 20:00:00 29,2 8,8 8 4 14 8 S 1015,7 20 51 -
19.09.2018 19:00:00 30,4 8,8 6 3 17 9 SSE 1015,1 20 60 0,0
19.09.2018 18:00:00 30,9 8,5 8 4 25 14 SE 1014,9 20 60 0,0
19.09.2018 17:00:00 30,9 8,5 6 3 18 10 E 1015,2 20 60 0,0
19.09.2018 16:00:00 30,0 8,9 5 3 18 10 SE 1015,9 20 60 0,0
19.09.2018 15:00:00 29,3 10,4 5 3 20 11 SE 1016,7 20 60 0,0
19.09.2018 14:00:00 29,0 11,1 4 2 14 8 SSE 1017,4 20 60 -
19.09.2018 13:00:00 26,8 13,2 4 2 24 13 SE 1018,4 20 60 0,0
19.09.2018 12:00:00 24,6 12,8 7 4 24 13 E 1018,9 20 60 0,0
19.09.2018 11:00:00 22,2 13,3 11 6 25 13 ESE 1019,3 20 60 0,0
19.09.2018 10:00:00 19,0 14,0 6 3 16 9 SE 1019,5 20 60 0,0
19.09.2018 09:00:00 15,7 12,8 3 2 14 7 SE 1019,9 14 33 0,0
19.09.2018 08:00:00 15,1 12,6 6 3 17 9 SSE 1019,6 20 0 -
19.09.2018 07:00:00 15,3 12,4 8 4 16 9 E 1019,1 20 0 0,0
19.09.2018 06:00:00 16,2 12,3 3 1 18 10 WSW 1018,2 20 0 0,0
19.09.2018 05:00:00 17,0 13,0 6 3 18 10 E 1018,1 20 0 0,0
19.09.2018 04:00:00 18,0 12,8 5 3 18 10 SE 1017,9 20 0 0,0
19.09.2018 03:00:00 18,4 12,4 8 4 18 10 E 1018,1 20 0 0,0
19.09.2018 02:00:00 20,1 13,1 8 5 24 13 SE 1017,8 20 0 -
19.09.2018 01:00:00 20,7 12,4 6 3 22 12 SSE 1017,6 20 0 0,0
19.09.2018 00:00:00 19,8 11,6 3 1 10 5 NNW 1017,5 20 0 0,0
18.09.2018 23:00:00 20,7 11,9 2 1 9 5 NNW 1016,9 20 0 0,0
18.09.2018 22:00:00 22,2 12,4 5 3 16 9 W 1015,7 20 0 0,0
18.09.2018 21:00:00 23,3 12,8 8 5 33 18 NW 1014,4 20 0 0,0
18.09.2018 20:00:00 23,5 14,2 - - - - - 1013,8 20 12 -
18.09.2018 19:00:00 27,9 9,7 9 5 18 10 NW 1012,5 20 0 0,0
18.09.2018 18:00:00 27,7 9,6 8 4 19 11 N 1011,9 20 16 0,0
18.09.2018 17:00:00 29,2 10,3 8 4 20 11 N 1011,6 20 60 0,0
18.09.2018 16:00:00 28,4 11,4 6 3 22 12 N 1012,0 20 60 0,0
18.09.2018 15:00:00 27,5 11,9 5 3 23 12 N 1012,8 20 60 0,0
18.09.2018 14:00:00 26,5 12,5 6 4 17 9 N 1013,7 20 60 -
18.09.2018 13:00:00 25,1 13,4 5 3 24 13 E 1014,6 20 60 0,0
18.09.2018 12:00:00 23,2 13,9 4 2 11 6 ENE 1015,3 20 60 0,0
18.09.2018 11:00:00 20,3 14,6 6 3 18 10 SSW 1016,0 20 60 0,0
18.09.2018 10:00:00 19,5 15,2 6 3 19 10 ESE 1015,4 20 60 0,0
18.09.2018 09:00:00 15,9 13,2 2 1 16 9 E 1016,1 20 28 0,0
18.09.2018 08:00:00 15,3 12,4 7 4 18 10 N 1015,7 20 0 -
18.09.2018 07:00:00 15,9 12,8 7 4 18 10 W 1015,4 20 0 0,0
18.09.2018 06:00:00 16,5 13,5 5 3 21 11 E 1015,3 20 0 0,0
18.09.2018 05:00:00 16,9 13,9 5 3 21 12 NNW 1015,1 20 0 0,0
18.09.2018 04:00:00 17,6 14,1 9 5 19 10 E 1015,0 20 0 0,0
18.09.2018 03:00:00 18,6 14,2 6 4 19 10 ESE 1014,8 20 0 0,0
18.09.2018 02:00:00 18,7 13,8 9 5 13 7 ENE 1014,9 20 0 -
18.09.2018 01:00:00 19,3 14,3 6 3 16 9 ESE 1014,8 20 0 0,0
18.09.2018 00:00:00 19,6 14,2 10 5 28 15 SSE 1014,8 20 0 0,0
17.09.2018 23:00:00 20,4 13,6 9 5 27 15 SSE 1015,1 20 0 0,0
17.09.2018 22:00:00 21,3 13,0 6 4 - - S 1013,4 20 0 0,0
17.09.2018 21:00:00 21,6 12,7 - - - - - 1012,5 20 0 0,0
17.09.2018 20:00:00 22,3 12,5 - - - - - 1012,5 20 0 -
17.09.2018 19:00:00 26,4 11,7 26 14 57 31 SSE 1011,4 20 25 0,0
17.09.2018 18:00:00 29,1 10,8 9 5 23 12 SE 1010,3 20 39 0,0
17.09.2018 17:00:00 26,9 13,7 5 3 14 8 SSE 1011,3 20 0 0,0
17.09.2018 16:00:00 27,5 12,3 6 4 23 13 SE 1012,2 20 26 0,0
17.09.2018 15:00:00 29,1 13,0 10 5 26 14 ESE 1012,5 20 60 0,0
17.09.2018 14:00:00 28,1 13,3 8 4 25 13 SSE 1013,7 20 60 -
17.09.2018 13:00:00 26,9 13,7 6 3 26 14 SE 1014,7 20 60 0,0
17.09.2018 12:00:00 24,1 14,5 8 4 29 16 SE 1015,6 20 60 0,0
17.09.2018 11:00:00 22,4 14,8 16 9 31 17 SE 1016,4 20 60 0,0
17.09.2018 10:00:00 19,6 14,4 11 6 25 13 ESE 1017,1 20 58 0,0
17.09.2018 09:00:00 17,7 13,1 7 4 21 11 ESE 1017,6 20 35 0,0
17.09.2018 08:00:00 16,9 12,8 10 6 26 14 SE 1017,7 20 0 -
17.09.2018 07:00:00 17,4 13,4 14 8 27 14 ESE 1017,3 20 0 0,0
17.09.2018 06:00:00 17,9 13,4 11 6 22 12 SE 1017,5 20 0 0,0
17.09.2018 05:00:00 18,5 13,8 9 5 23 12 ESE 1017,3 20 0 0,0
17.09.2018 04:00:00 18,2 13,1 10 6 23 13 ESE 1017,8 20 0 0,0
17.09.2018 03:00:00 17,8 9,2 8 4 19 10 E 1018,2 20 0 0,0
17.09.2018 02:00:00 18,5 8,4 10 5 18 10 E 1018,0 20 0 -
17.09.2018 01:00:00 19,5 7,8 6 3 21 11 E 1017,9 20 0 0,0
17.09.2018 00:00:00 19,6 8,5 2 1 4 2 NNW 1017,9 20 0 0,0
16.09.2018 23:00:00 22,9 7,4 3 2 9 5 SSW 1017,0 20 0 0,0

tt = temperature
td = dewpoint
ff = wind speed
fx = gusts
dd = wind direction
ppp = reduced air pressure
vv = visibility
sd = sunshine duration
rr = precipitation

Next stations